Location: Borgo
(42.3939°N, 9.2791°E)
Time: 21:42:55
(UTC+00:00)

Cosmos 1844 - Pass Details

Date: 24 January 2021
Orbit: 821 x 869 km, 70.9° (Epoch: 03 March)

Event Time Altitude Azimuth Distance (km) Brightness Sun altitude
Rises 16:48:37 0° 188° (S) 3,368 7.3 -4.5°
Reaches altitude 10° 16:51:04 10° 183° (S) 2,445 6.5 -5.0°
Maximum altitude 16:56:30 53° 108° (ESE) 1,038 3.9 -5.9°
Drops below altitude 10° 17:02:02 10° 34° (NNE) 2,493 5.7 -6.9°
Sets 17:04:34 0° 29° (NNE) 3,440 6.4 -7.3°
